AirNav   Air Wisconsin Up To $57,000 Bonus
 
 466 users online  

30PN Pittsburgh Children's Hospital Heliport
Pittsburgh, Pennsylvania, USA

GOING TO PITTSBURGH?


FAA INFORMATION EFFECTIVE 26 MARCH 2020

Location

FAA Identifier: 30PN
Lat/Long: 40-27-59.7900N 079-57-09.6100W
40-27.996500N 079-57.160167W
40.4666083,-79.9526694
(estimated)
Elevation: 1088 ft. / 332 m (estimated)
Variation: 09W (2010)
From city: 1 mile SW of PITTSBURGH, PA
Time zone: UTC -4 (UTC -5 during Standard Time)
Zip code: 15223

Heliport Operations

Heliport use: Private use. Permission required prior to landing
Activation date: 04/2009
Control tower: no
ARTCC: CLEVELAND CENTER
FSS: ALTOONA FLIGHT SERVICE STATION
NOTAMs facility: FDC (NOTAM-D service not available)
Attendance: UNATNDD
Wind indicator: yes
Segmented circle: no

Heliport Communications

PITTSBURGH APPROACH: 119.35
PITTSBURGH DEPARTURE: 119.35
WX AWOS-A at 42PN (2.4 nm W): PHONE 412-442-2213
WX ASOS at AGC (7 nm S): 120.55 (412-466-8968)
WX ASOS at PIT (13 nm W): PHONE 412-472-0145
WX AWOS-3 at FWQ (16 nm S): 118.475 (724-379-5815)
WX AWOS-3PT at BTP (19 nm N): 121.450 (724-586-6434)

Nearby radio navigation aids

VOR radial/distance  VOR name  Freq  Var
AGCr029/12.0ALLEGHENY VOR/DME110.0009W
EWCr159/24.5ELLWOOD CITY VOR/DME115.8008W
HLGr073/30.8WHEELING VOR/DME112.2007W

 
NDB name  Hdg/Dist  Freq  Var  ID
CASTLE157/39.527209WUCP ..- -.-. .--.

Heliport Services

Runway Information

Helipad H1

Dimensions: 45 x 45 ft. / 14 x 14 m
Surface: ROOFTOP, in fair condition
Runway edge lights: PERI
Latitude: 40-27.996500N
Longitude: 079-57.160167W
Elevation: 1088.0 ft.
Traffic pattern: leftleft
Markings: none, in fair condition

Heliport Ownership and Management from official FAA records

Ownership: Privately-owned
Owner: CHILDREN'S HOSPITAL OF PITTSBURGH
UPMC, 4401 PENN AVE
PITTSBURGH, PA 15201
Phone 412-692-5325
Manager: JAMES MAJSAK
4401 PENN AVENUE
PITTSBURGH, PA 15224
Phone 412-692-7252
(412) 692-5191

Additional Remarks

A52-H1 30 FT BLDG 49 FT N OF PAD.
FOR CD CTC PITTSBURGH APCH AT 412-472-5591

Instrument Procedures

There are no published instrument procedures at 30PN.

Some nearby airports with instrument procedures:

KAGC - Allegheny County Airport (7 nm S)
KPIT - Pittsburgh International Airport (13 nm W)
G05 - Finleyville Airpark (14 nm S)
KFWQ - Rostraver Airport (16 nm S)
KBTP - Pittsburgh/Butler Regional Airport (19 nm N)
 
Loc | Ops | Rwys | IFR | FBO | Links
Com | Nav | Svcs | Stats | Notes
Aerial photo
No photo
 
Sectional chart

 
Airport distance calculator
Flying to Pittsburgh Children's Hospital Heliport? Find the distance to fly.

From to 30PN

Sunrise and sunset
Times for 01-Apr-2020
 Local
(UTC-4)
 Zulu
(UTC)
Morning civil twilight06:3510:35
Sunrise07:0311:03
Sunset19:4423:44
Evening civil twilight20:1200:12

Current date and time
Zulu (UTC)  01-Apr-2020 05:15:47
Local (UTC-4)  01-Apr-2020 01:15:47
 
METAR
KAGC 
7nm S 
010453Z -RA OVC024 06/04 A2981 RMK AO2 SLP104 P0002 T00560044 400830039 $
KPIT 
14nm W 
010451Z 17003KT 8SM -RA OVC023 06/04 A2982 RMK AO2 RAE06B29 SLP111 P0000 T00560039 400780033
KP53 
16nm S 
010456Z AUTO 02003KT 01/M01 A3010 RMK AO1 SLP200 T00061011 400170000
KBTP 
18nm N 
010456Z AUTO 03004KT 10SM BKN025 OVC032 06/04 A2983 RMK AO2 RAB10E23 SLP114 P0000 T00560039 400720028
TAF
KAGC 
7nm S 
010225Z 0102/0124 03005KT P6SM -SHRA OVC025 FM010400 01004KT P6SM -SHRA OVC015 FM011600 35007KT P6SM OVC025 FM011900 33009KT P6SM BKN060
KPIT 
14nm W 
010408Z 0104/0206 03005KT P6SM -RA OVC025 FM011900 33009KT P6SM BKN060
NOTAMs
Click for the latest NOTAMs
NOTAMs are issued by the DoD/FAA and will open in a separate window not controlled by AirNav.

 

 
 

Would you like to see your business listed on this page?

 If your business provides an interesting product or service to pilots, flight crews, aircraft, or users of the Pittsburgh Children's Hospital Heliport, you should consider listing it here.  To start the listing process, click on the button below
 
Add a business
 

Other Pages about Pittsburgh Children's Hospital Heliport

Update a link
 
Copyright © AirNav, LLC. All rights reserved. Privacy Policy  Contact